COSMOS 1823 DEB, 29360

Orbit data source: Space-Track

COSMOS 1823 DEB, 29360 is space debris in LEO originally from a launch on Fri, 20 Feb 1987 UTC launched from the Plesetsk Missile And Space Complex (PKMTR). Debris objects in space refer to the collection of defunct objects orbiting the Earth. Examples of debris include non-operational satellites, rocket bodies, and fragments generated from explosions, collisions, or faulty payload assembly.

Loading next visibility...
Identifier
29360, 1987-020EB
Orbit
LEO
Country
Flag of CISCIS
Related business
Manufacturer
Unknown
Mission
Spacecraft
Bus & Motor
Unknown
Mass
Unknown
Launch date (UTC)
1987-02-20 (39 years ago)
Launch vehicle
Unknown
Launch site
Plesetsk Missile And Space Complex (PKMTR)
Object type
Payload
Rocket body
Debris
Shape & HBR
Unknown shape, 0.1 m
Radar Cross Section
Medium (>0.1 m² and <1 m²)

Expand to show TLE details & history
Last TLE update: 2 days ago

TLE from 2 days ago
0 COSMOS 1823 DEB
1 29360U 87020EB  26171.21693591  .00000074  00000-0  68209-3 0  9999
2 29360  73.7076 254.6262 0062355 207.4601 180.7921 12.39611228145621
Epoch: 2026-06-20T05:12Z
TLE epoch observation values (Epoch: 2026-06-20T05:12:23.262Z)
Latitude
27.05384°
Longitude
-83.36288°
Altitude
1,560.219 km
Speed
7.068 km/s
True Right ascension
17h 32m 40s
True Declination
26° 55' 44"
Sunlit
Object was in full shadow at epoch
Visualization orbit readout
Latitude
Unknown
Longitude
Unknown
Altitude
Unknown
Speed
Unknown
Apparent Right ascension
Unknown
Apparent Declination
Unknown
Sunlit
N/A
Visualization observer readout
Local Sidereal Time
23:07:57
Azimuth
Unknown
Elevation
Unknown
Doppler factor
Unknown
Orbital elements
Apogee altitude
1,555.286 km
Perigee altitude
1,456.961 km
Semi-major axis
7,884.261 km
Eccentricity
0.00624
Inclination
73.7076°
RAAN
254.6262°
Arg. of periapsis
207.4601°
True anomaly
180.7823°
Mean anomaly
180.7921°
Eccentric anomaly
180.78719°
Mean motion
3.10029 °/min
Orbital period
116.12 mins
BSTAR
0.00068209
Loading maneuver chart data...
Computing Atmospheric mass density...

Documentation

Showing up to 5 results
|